SCP
0 0 0 0 -0 0 0 0 0 0 0 0 0 0 0 0 0 0 0 0 0 -0 -0 0 0 0 0 0 0 0 0 0 0 0 0 0 1 0 0 -0 2 1 2 0
0 0 0 0 0 0 0 0 0 0 0 0 0 0 0 0 0 0 0 0 0 0 -0 -0 0 0 0 0 0 0 0 0 0 0 0 0 1 1 1 2 1 0 0 0
0 0 0 0 0 0 0 0 0 0 0 0 0 0 0 0 0 0 0 0 0 0 0 0 -0 0 0 0 0 0 0 0 0 0 0 1 1 1 1 0 0 0 0 0
0 0 0 0 0 0 0 0 0 0 0 0 -0 0 0 0 0 0 -0 0 0 0 -0 0 0 -0 0 0 0 0 0 0 0 0 0 1 2 1 0 0 0 0 0 0
0 0 0 0 0 0 0 0 0 0 0 -0 -0 -0 0 0 0 -0 0 0 0 0 0 -0 -0 0 -0 -0 -0 0 0 0 0 0 0 1 2 0 0 0 0 0 0 0
0 0 0 0 0 0 0 0 0 0 0 -0 -0 -0 0 0 0 0 0 0 -0 -0 -0 -0 0 0 0 -0 0 0 0 0 0 0 1 1 0 0 0 0 0 0 0 0
0 0 0 0 0 0 0 0 0 0 -0 -0 0 0 0 0 0 0 -0 0 -0 -0 -0 -0 0 0 0 0 0 0 0 0 0 0 1 0 0 0 0 0 0 0 0 0
0 0 0 0 0 0 0 0 0 0 -0 -0 0 -0 -0 0 0 -0 -0 0 -0 -0 -0 0 0 0 0 0 0 0 0 0 0 0 0 0 0 0 0 0 0 0 0 0
0 0 0 -0 -0 0 0 0 0 0 -0 -0 -0 0 0 0 -0 -0 -0 -0 -0 -0 0 0 0 0 0 0 0 0 0 0 0 0 0 0 0 0 0 0 0 0 0 0
0 0 0 0 -0 0 0 0 0 -0 -0 -0 -0 0 0 -0 -0 -0 0 0 -0 -0 -0 -0 -0 -0 -0 -0 0 0 0 0 0 0 0 0 0 0 0 0 0 0 0 0
0 0 -0 0 0 0 0 0 -0 -0 -0 -0 0 -0 0 -0 -0 0 0 0 -0 -0 -0 0 0 0 0 0 0 0 0 0 0 0 0 0 0 0 0 0 0 0 0 0
0 -0 -0 -0 0 0 0 0 -0 -0 -0 -0 0 0 0 0 0 0 -0 -0 -0 -0 0 0 0 0 0 0 0 0 0 0 0 0 0 0 0 0 0 0 0 0 0 0
0 -0 -0 -0 0 0 0 -0 -0 0 0 -0 0 0 -0 0 0 -0 -0 0 0 0 0 0 0 0 0 0 0 0 0 0 0 0 0 0 0 0 0 0 0 0 0 0
-0 0 0 0 0 0 -0 -0 0 0 0 -0 0 -0 -0 0 0 0 0 0 0 0 0 0 0 0 0 0 0 0 0 0 0 0 0 0 0 0 0 0 0 0 0 0
-0 0 0 0 0 -0 -0 0 -0 -0 -0 -0 0 -0 0 0 0 0 0 0 0 0 0 0 0 0 0 0 0 0 0 0 0 0 0 0 0 0 0 0 0 0 0 0
-0 -0 -0 -0 -0 -0 0 -0 -0 -0 -0 0 -0 0 0 0 0 0 0 0 0 0 0 0 0 0 0 0 0 0 0 -0 0 0 0 0 0 0 0 0 0 0 0 0
-0 -0 -0 -0 0 0 -0 -0 0 -0 0 0 0 0 0 0 0 0 0 0 0 0 0 0 0 0 0 0 0 0 0 0 0 0 0 0 0 0 0 0 0 0 0 0
0 0 -0 -0 0 0 0 0 0 0 0 0 0 0 0 0 0 0 0 0 0 0 0 0 0 0 0 0 0 0 0 0 0 0 0 0 0 0 0 0 0 0 0 0
-0 0 -0 -0 0 0 0 0 0 0 0 0 0 0 0 0 0 0 0 0 0 0 0 0 0 0 0 0 0 0 0 0 0 0 0 0 0 0 0 0 0 0 0 0
0 -0 -0 0 0 0 0 0 0 0 0 0 0 0 0 0 0 0 0 0 0 0 0 0 0 0 0 0 0 0 0 0 0 0 0 0 0 0 0 0 0 0 -0 -0
0 -0 0 0 0 0 0 0 0 0 0 0 0 0 0 0 0 0 0 0 0 0 0 0 0 0 0 0 0 0 0 0 0 0 0 0 0 0 0 0 -0 -0 -0 -0
-0 -0 0 0 0 0 0 0 0 0 0 0 0 0 0 0 0 0 0 0 0 0 0 0 0 0 0 0 0 0 0 0 0 0 0 0 0 0 0 -0 -0 -0 -0 -0
0 0 0 0 0 0 0 0 0 0 0 0 0 0 0 0 0 0 0 0 0 0 0 0 0 0 0 0 0 0 0 0 0 0 0 0 -0 -0 -0 -0 -0 -0 -0 -0
-0 0 0 0 0 0 0 0 0 0 0 0 0 0 0 0 0 0 0 0 0 0 0 0 0 0 0 0 0 0 0 0 0 0 -0 -0 -0 -0 -0 -0 -0 -0 -0 0
-0 0 0 0 0 0 0 0 0 0 0 0 0 0 0 0 0 0 0 0 0 0 0 0 0 0 0 0 0 0 0 0 -0 -0 -0 -0 -0 -0 -0 -0 -0 0 0 -0
-0 -0 0 0 0 0 0 0 0 0 0 0 0 0 0 0 0 0 0 0 0 0 0 0 0 0 0 0 0 0 -0 -0 -0 -0 -0 -0 -0 -0 -0 -0 0 0 0 0
0 -0 -0 -0 0 0 0 0 0 0 0 0 0 0 0 0 0 0 0 0 0 0 0 0 0 0 0 0 0 0 -0 -0 -0 -0 -0 -0 -0 -0 0 0 0 0 0 0
Wind_Speed_500mb
40 46 47 51 54 53 43 44 33 49 54 59 52 48 57 71 75 77 73 69 67 67 65 62 59 59 60 61 57 53 51 49 45 49 52 52 53 42 41 40 52 56 64 60
38 42 45 51 51 45 47 43 46 45 56 48 56 62 67 77 76 73 74 75 77 78 69 65 60 58 56 58 58 55 54 52 46 46 49 49 48 40 39 51 55 60 67 58
23 29 41 36 14 10 22 24 28 32 53 49 41 45 64 78 79 71 74 79 81 85 82 73 63 55 54 52 51 54 54 52 49 44 44 47 44 36 52 58 66 60 63 69
15 31 16 4 4 10 22 27 38 49 40 30 49 59 70 77 63 56 72 82 86 85 76 71 60 55 50 48 51 52 52 51 47 44 48 45 34 49 61 69 72 67 74 73
8 19 40 37 8 4 4 34 34 11 29 55 63 67 47 32 63 80 87 91 84 71 71 66 63 49 45 46 49 50 51 51 49 45 45 44 47 62 72 73 78 72 70 73
7 14 14 6 9 2 18 22 6 34 37 41 51 28 38 76 97 98 87 75 76 68 66 59 56 45 42 53 47 52 51 47 40 43 46 44 55 75 78 75 68 72 77 88
22 17 23 2 3 16 11 12 50 37 50 53 29 32 75 93 93 83 79 77 71 72 61 54 44 40 43 44 53 49 39 34 36 40 43 65 76 80 89 78 81 82 95 103
10 11 18 12 10 6 22 52 42 44 48 63 62 74 77 81 80 81 79 79 69 61 53 45 42 44 49 53 49 39 37 35 32 46 71 81 84 88 83 92 94 101 112 106
11 12 33 60 49 42 33 42 40 48 65 57 65 73 78 77 74 66 68 66 56 52 43 35 32 31 51 64 68 53 45 56 63 70 77 89 89 91 90 94 101 110 115 116
6 16 30 50 62 44 39 42 46 57 52 58 62 68 74 72 66 69 62 58 47 31 32 32 30 11 18 34 75 75 88 80 79 78 88 86 86 86 92 98 109 116 105 102
28 40 53 42 26 34 39 33 53 44 50 54 56 64 62 62 67 59 55 46 34 29 30 35 36 57 61 90 119 101 96 93 91 92 90 90 92 97 101 102 113 125 103 67
17 37 36 33 27 37 29 42 42 43 52 50 50 55 57 59 54 52 44 37 29 41 35 43 50 70 86 104 105 105 105 99 103 101 100 106 109 107 97 119 127 121 103 81
48 57 42 47 32 28 33 37 37 39 45 51 48 50 51 50 48 44 37 28 38 46 47 51 60 72 80 88 85 104 111 109 109 104 110 124 129 135 131 117 113 103 89 87
37 28 14 15 24 26 33 29 33 34 40 37 43 42 44 44 45 43 37 42 46 60 65 60 68 74 78 92 99 103 110 109 109 119 125 130 129 130 130 124 110 95 83 86
8 6 16 30 15 27 26 26 34 37 36 39 37 41 41 46 44 40 40 50 56 67 74 80 83 80 87 94 103 113 115 117 126 132 141 148 132 125 125 118 113 103 93 82
10 12 20 11 18 20 22 25 32 34 37 34 34 35 42 36 39 46 54 60 71 74 82 88 92 91 98 109 113 118 126 136 146 149 143 129 120 123 120 112 104 100 90 83
17 23 26 24 16 18 22 24 25 28 28 30 30 39 42 44 46 48 60 73 79 83 88 93 93 102 112 124 137 139 134 134 141 125 112 105 103 107 98 98 100 92 72 55
16 18 20 16 13 15 20 23 26 25 22 26 39 44 52 59 54 54 67 71 83 90 94 97 105 111 120 130 138 129 118 106 103 103 100 98 96 90 84 78 69 66 65 66
20 23 18 17 17 17 20 23 25 22 29 35 38 49 55 56 59 67 76 85 89 93 86 92 93 104 98 89 93 95 98 99 97 94 96 91 79 72 70 70 68 65 60 54
25 20 18 20 20 20 22 24 25 30 35 34 45 53 66 64 67 77 78 86 81 71 61 69 83 87 86 85 92 92 95 97 95 86 79 77 73 72 70 68 64 59 56 53
29 21 19 21 24 26 26 26 28 33 36 44 46 55 59 67 66 67 69 81 69 66 70 71 69 69 72 75 75 76 76 78 77 72 68 71 72 68 64 60 59 56 53 49
27 22 23 25 28 28 28 30 35 38 46 44 47 51 53 64 61 61 58 57 48 55 51 54 59 68 71 69 68 69 67 66 65 65 64 63 62 61 59 56 55 52 49 46
18 23 22 21 25 29 31 36 51 48 45 52 56 59 64 55 51 47 49 51 58 63 65 72 77 74 68 63 63 62 62 61 60 59 59 57 57 55 54 52 50 49 46 42
18 19 20 24 26 31 38 47 46 42 42 42 45 43 44 48 57 57 57 60 65 68 66 65 68 65 61 59 57 57 56 57 57 55 56 56 53 51 51 48 46 42 41 39
18 21 19 23 32 33 46 46 39 36 39 40 42 42 42 42 45 46 56 60 63 63 63 61 63 58 54 54 53 52 52 52 52 52 50 50 50 48 45 43 41 39 36 35
19 20 23 28 34 47 50 34 37 37 38 42 43 42 43 44 47 46 46 49 49 51 44 40 42 48 48 49 48 47 50 53 48 46 46 45 44 43 41 41 40 36 34 31
22 27 33 36 31 34 29 32 35 39 38 39 43 42 43 47 46 43 43 42 42 43 42 40 42 43 43 44 46 44 42 44 45 42 43 42 39 40 38 37 36 34 32 33
Wind_Direction_500mb
257 268 277 276 276 275 266 267 261 284 285 299 320 323 324 319 315 311 308 308 305 300 292 287 280 266 257 252 250 245 247 250 249 251 252 252 254 249 239 236 230 228 222 218
277 281 272 274 277 275 274 277 283 294 291 303 319 317 318 315 311 309 302 297 297 295 295 285 277 270 262 252 244 242 242 244 243 243 244 245 250 247 236 224 224 222 222 225
282 297 308 285 293 277 268 283 282 283 292 308 312 315 310 308 305 299 297 300 299 297 296 290 274 267 258 252 246 240 238 237 236 236 237 235 241 235 221 217 212 211 210 219
286 304 265 108 205 299 283 287 291 287 299 326 306 304 303 300 293 298 303 302 305 308 313 314 304 258 257 249 242 237 232 227 228 229 229 227 228 220 214 208 203 203 195 195
271 286 283 277 165 228 247 295 299 333 309 311 312 310 298 310 318 309 308 310 310 308 307 304 301 287 247 242 235 231 226 224 225 222 220 215 210 214 204 204 188 190 189 184
289 282 284 15 155 291 299 280 94 322 319 315 315 309 309 318 316 314 311 310 310 310 308 299 295 286 267 235 228 225 223 224 221 215 212 206 208 194 194 196 195 178 169 167
263 259 265 218 65 314 259 333 322 317 313 309 299 289 295 305 308 311 314 317 317 313 312 306 293 278 260 245 228 225 221 216 212 205 209 198 188 183 180 179 179 170 161 158
235 254 274 79 329 235 296 305 306 306 300 304 303 305 304 308 310 315 319 321 319 318 315 303 288 270 253 245 237 222 199 186 189 187 171 174 177 171 173 170 166 161 156 153
208 246 298 300 300 298 309 296 309 309 308 309 307 306 309 310 315 321 325 322 323 321 318 311 298 272 251 239 227 217 189 160 159 163 166 168 171 165 163 164 159 152 154 147
295 262 274 296 303 307 311 301 304 311 310 313 305 308 310 315 321 329 332 333 333 340 345 348 8 338 229 207 187 160 148 153 156 159 154 152 153 157 160 159 156 148 141 143
258 278 288 288 303 297 308 303 313 315 319 316 314 313 318 323 329 341 342 354 355 12 14 36 59 76 100 124 137 142 145 148 148 149 149 146 142 141 146 147 152 148 139 137
265 277 303 304 308 320 307 319 318 323 320 322 324 326 328 335 341 354 1 4 17 39 61 72 85 93 107 127 135 139 141 143 139 143 136 135 139 131 126 134 138 134 134 142
268 289 299 306 314 306 316 324 326 326 327 328 334 338 340 346 1 4 18 50 50 69 74 93 100 97 108 130 145 137 134 131 129 135 127 125 125 126 122 122 124 125 131 131
293 289 303 320 318 309 329 328 330 331 339 341 340 348 4 10 13 22 52 69 72 84 87 101 105 97 106 117 139 132 130 135 133 126 128 127 126 123 121 121 123 124 127 125
301 350 291 308 310 322 339 337 339 345 354 355 360 8 26 25 29 46 71 79 83 93 96 99 98 99 111 119 128 125 123 120 122 123 124 125 122 122 122 125 128 126 125 124
32 291 324 11 351 343 346 352 349 349 2 358 10 30 47 45 53 68 81 88 93 86 97 105 104 109 118 121 123 122 122 124 125 124 121 117 120 125 128 127 127 127 125 125
330 4 346 354 357 358 358 359 355 8 5 20 36 57 59 68 66 75 84 91 100 102 103 104 103 111 117 120 119 119 118 119 120 116 116 119 122 123 125 126 126 122 117 122
43 8 6 18 15 13 9 13 22 28 30 54 63 66 72 63 70 85 92 98 107 107 106 110 112 111 115 119 121 116 112 111 113 116 118 119 119 117 118 120 122 121 121 120
26 15 27 47 36 36 31 30 42 55 67 59 64 68 68 72 82 93 93 97 103 103 97 104 103 112 108 107 110 111 112 113 115 117 118 117 117 119 119 119 119 119 118 114
23 26 51 51 55 50 49 51 70 78 66 76 88 77 82 77 86 87 87 88 91 93 95 100 106 107 106 110 114 114 115 114 115 114 116 116 115 116 117 118 118 118 117 115
29 45 51 57 71 59 67 74 82 78 72 98 79 91 87 91 88 93 86 89 92 104 107 101 99 102 103 105 109 112 114 113 112 113 114 116 116 117 117 117 115 115 114 113
37 49 59 80 71 71 76 87 93 87 79 81 89 86 99 96 97 90 85 85 98 105 98 100 105 109 108 110 111 112 113 114 114 115 115 116 117 116 116 116 115 114 115 114
62 49 68 74 68 80 87 95 96 84 75 78 82 81 87 88 90 87 80 88 100 107 105 110 110 110 109 110 111 112 112 113 114 115 115 115 115 117 117 117 118 117 117 118
82 66 64 72 86 91 97 108 81 80 81 80 87 85 84 78 75 80 89 98 104 107 104 107 106 106 108 109 109 110 111 111 113 114 116 117 118 120 119 118 116 118 116 116
96 78 75 74 96 100 112 87 88 82 84 85 85 85 90 93 89 89 92 98 104 104 107 110 105 102 104 106 108 111 112 113 115 118 118 118 117 118 120 121 119 119 121 122
101 87 83 86 107 120 113 86 88 87 89 91 90 92 91 91 95 97 97 98 100 101 102 101 102 103 104 106 110 113 113 111 111 116 117 119 123 124 126 128 125 122 124 125
107 104 107 106 106 114 109 101 92 86 85 92 94 96 96 99 97 96 97 97 97 103 103 103 106 107 107 109 110 111 115 118 118 122 126 125 125 126 127 130 129 128 128 132
Wind_Speed_850mb
40 46 47 51 54 53 43 44 33 49 54 59 52 48 57 71 75 77 73 69 67 67 65 62 59 59 60 61 57 53 51 49 45 49 52 52 53 42 41 40 52 56 64 60
38 42 45 51 51 45 47 43 46 45 56 48 56 62 67 77 76 73 74 75 77 78 69 65 60 58 56 58 58 55 54 52 46 46 49 49 48 40 39 51 55 60 67 58
23 29 41 36 14 10 22 24 28 32 53 49 41 45 64 78 79 71 74 79 81 85 82 73 63 55 54 52 51 54 54 52 49 44 44 47 44 36 52 58 66 60 63 69
15 31 16 4 4 10 22 27 38 49 40 30 49 59 70 77 63 56 72 82 86 85 76 71 60 55 50 48 51 52 52 51 47 44 48 45 34 49 61 69 72 67 74 73
8 19 40 37 8 4 4 34 34 11 29 55 63 67 47 32 63 80 87 91 84 71 71 66 63 49 45 46 49 50 51 51 49 45 45 44 47 62 72 73 78 72 70 73
7 14 14 6 9 2 18 22 6 34 37 41 51 28 38 76 97 98 87 75 76 68 66 59 56 45 42 53 47 52 51 47 40 43 46 44 55 75 78 75 68 72 77 88
22 17 23 2 3 16 11 12 50 37 50 53 29 32 75 93 93 83 79 77 71 72 61 54 44 40 43 44 53 49 39 34 36 40 43 65 76 80 89 78 81 82 95 103
10 11 18 12 10 6 22 52 42 44 48 63 62 74 77 81 80 81 79 79 69 61 53 45 42 44 49 53 49 39 37 35 32 46 71 81 84 88 83 92 94 101 112 106
11 12 33 60 49 42 33 42 40 48 65 57 65 73 78 77 74 66 68 66 56 52 43 35 32 31 51 64 68 53 45 56 63 70 77 89 89 91 90 94 101 110 115 116
6 16 30 50 62 44 39 42 46 57 52 58 62 68 74 72 66 69 62 58 47 31 32 32 30 11 18 34 75 75 88 80 79 78 88 86 86 86 92 98 109 116 105 102
28 40 53 42 26 34 39 33 53 44 50 54 56 64 62 62 67 59 55 46 34 29 30 35 36 57 61 90 119 101 96 93 91 92 90 90 92 97 101 102 113 125 103 67
17 37 36 33 27 37 29 42 42 43 52 50 50 55 57 59 54 52 44 37 29 41 35 43 50 70 86 104 105 105 105 99 103 101 100 106 109 107 97 119 127 121 103 81
48 57 42 47 32 28 33 37 37 39 45 51 48 50 51 50 48 44 37 28 38 46 47 51 60 72 80 88 85 104 111 109 109 104 110 124 129 135 131 117 113 103 89 87
37 28 14 15 24 26 33 29 33 34 40 37 43 42 44 44 45 43 37 42 46 60 65 60 68 74 78 92 99 103 110 109 109 119 125 130 129 130 130 124 110 95 83 86
8 6 16 30 15 27 26 26 34 37 36 39 37 41 41 46 44 40 40 50 56 67 74 80 83 80 87 94 103 113 115 117 126 132 141 148 132 125 125 118 113 103 93 82
10 12 20 11 18 20 22 25 32 34 37 34 34 35 42 36 39 46 54 60 71 74 82 88 92 91 98 109 113 118 126 136 146 149 143 129 120 123 120 112 104 100 90 83
17 23 26 24 16 18 22 24 25 28 28 30 30 39 42 44 46 48 60 73 79 83 88 93 93 102 112 124 137 139 134 134 141 125 112 105 103 107 98 98 100 92 72 55
16 18 20 16 13 15 20 23 26 25 22 26 39 44 52 59 54 54 67 71 83 90 94 97 105 111 120 130 138 129 118 106 103 103 100 98 96 90 84 78 69 66 65 66
20 23 18 17 17 17 20 23 25 22 29 35 38 49 55 56 59 67 76 85 89 93 86 92 93 104 98 89 93 95 98 99 97 94 96 91 79 72 70 70 68 65 60 54
25 20 18 20 20 20 22 24 25 30 35 34 45 53 66 64 67 77 78 86 81 71 61 69 83 87 86 85 92 92 95 97 95 86 79 77 73 72 70 68 64 59 56 53
29 21 19 21 24 26 26 26 28 33 36 44 46 55 59 67 66 67 69 81 69 66 70 71 69 69 72 75 75 76 76 78 77 72 68 71 72 68 64 60 59 56 53 49
27 22 23 25 28 28 28 30 35 38 46 44 47 51 53 64 61 61 58 57 48 55 51 54 59 68 71 69 68 69 67 66 65 65 64 63 62 61 59 56 55 52 49 46
18 23 22 21 25 29 31 36 51 48 45 52 56 59 64 55 51 47 49 51 58 63 65 72 77 74 68 63 63 62 62 61 60 59 59 57 57 55 54 52 50 49 46 42
18 19 20 24 26 31 38 47 46 42 42 42 45 43 44 48 57 57 57 60 65 68 66 65 68 65 61 59 57 57 56 57 57 55 56 56 53 51 51 48 46 42 41 39
18 21 19 23 32 33 46 46 39 36 39 40 42 42 42 42 45 46 56 60 63 63 63 61 63 58 54 54 53 52 52 52 52 52 50 50 50 48 45 43 41 39 36 35
19 20 23 28 34 47 50 34 37 37 38 42 43 42 43 44 47 46 46 49 49 51 44 40 42 48 48 49 48 47 50 53 48 46 46 45 44 43 41 41 40 36 34 31
22 27 33 36 31 34 29 32 35 39 38 39 43 42 43 47 46 43 43 42 42 43 42 40 42 43 43 44 46 44 42 44 45 42 43 42 39 40 38 37 36 34 32 33
Wind_Direction_850mb
257 268 277 276 276 275 266 267 261 284 285 299 320 323 324 319 315 311 308 308 305 300 292 287 280 266 257 252 250 245 247 250 249 251 252 252 254 249 239 236 230 228 222 218
277 281 272 274 277 275 274 277 283 294 291 303 319 317 318 315 311 309 302 297 297 295 295 285 277 270 262 252 244 242 242 244 243 243 244 245 250 247 236 224 224 222 222 225
282 297 308 285 293 277 268 283 282 283 292 308 312 315 310 308 305 299 297 300 299 297 296 290 274 267 258 252 246 240 238 237 236 236 237 235 241 235 221 217 212 211 210 219
286 304 265 108 205 299 283 287 291 287 299 326 306 304 303 300 293 298 303 302 305 308 313 314 304 258 257 249 242 237 232 227 228 229 229 227 228 220 214 208 203 203 195 195
271 286 283 277 165 228 247 295 299 333 309 311 312 310 298 310 318 309 308 310 310 308 307 304 301 287 247 242 235 231 226 224 225 222 220 215 210 214 204 204 188 190 189 184
289 282 284 15 155 291 299 280 94 322 319 315 315 309 309 318 316 314 311 310 310 310 308 299 295 286 267 235 228 225 223 224 221 215 212 206 208 194 194 196 195 178 169 167
263 259 265 218 65 314 259 333 322 317 313 309 299 289 295 305 308 311 314 317 317 313 312 306 293 278 260 245 228 225 221 216 212 205 209 198 188 183 180 179 179 170 161 158
235 254 274 79 329 235 296 305 306 306 300 304 303 305 304 308 310 315 319 321 319 318 315 303 288 270 253 245 237 222 199 186 189 187 171 174 177 171 173 170 166 161 156 153
208 246 298 300 300 298 309 296 309 309 308 309 307 306 309 310 315 321 325 322 323 321 318 311 298 272 251 239 227 217 189 160 159 163 166 168 171 165 163 164 159 152 154 147
295 262 274 296 303 307 311 301 304 311 310 313 305 308 310 315 321 329 332 333 333 340 345 348 8 338 229 207 187 160 148 153 156 159 154 152 153 157 160 159 156 148 141 143
258 278 288 288 303 297 308 303 313 315 319 316 314 313 318 323 329 341 342 354 355 12 14 36 59 76 100 124 137 142 145 148 148 149 149 146 142 141 146 147 152 148 139 137
265 277 303 304 308 320 307 319 318 323 320 322 324 326 328 335 341 354 1 4 17 39 61 72 85 93 107 127 135 139 141 143 139 143 136 135 139 131 126 134 138 134 134 142
268 289 299 306 314 306 316 324 326 326 327 328 334 338 340 346 1 4 18 50 50 69 74 93 100 97 108 130 145 137 134 131 129 135 127 125 125 126 122 122 124 125 131 131
293 289 303 320 318 309 329 328 330 331 339 341 340 348 4 10 13 22 52 69 72 84 87 101 105 97 106 117 139 132 130 135 133 126 128 127 126 123 121 121 123 124 127 125
301 350 291 308 310 322 339 337 339 345 354 355 360 8 26 25 29 46 71 79 83 93 96 99 98 99 111 119 128 125 123 120 122 123 124 125 122 122 122 125 128 126 125 124
32 291 324 11 351 343 346 352 349 349 2 358 10 30 47 45 53 68 81 88 93 86 97 105 104 109 118 121 123 122 122 124 125 124 121 117 120 125 128 127 127 127 125 125
330 4 346 354 357 358 358 359 355 8 5 20 36 57 59 68 66 75 84 91 100 102 103 104 103 111 117 120 119 119 118 119 120 116 116 119 122 123 125 126 126 122 117 122
43 8 6 18 15 13 9 13 22 28 30 54 63 66 72 63 70 85 92 98 107 107 106 110 112 111 115 119 121 116 112 111 113 116 118 119 119 117 118 120 122 121 121 120
26 15 27 47 36 36 31 30 42 55 67 59 64 68 68 72 82 93 93 97 103 103 97 104 103 112 108 107 110 111 112 113 115 117 118 117 117 119 119 119 119 119 118 114
23 26 51 51 55 50 49 51 70 78 66 76 88 77 82 77 86 87 87 88 91 93 95 100 106 107 106 110 114 114 115 114 115 114 116 116 115 116 117 118 118 118 117 115
29 45 51 57 71 59 67 74 82 78 72 98 79 91 87 91 88 93 86 89 92 104 107 101 99 102 103 105 109 112 114 113 112 113 114 116 116 117 117 117 115 115 114 113
37 49 59 80 71 71 76 87 93 87 79 81 89 86 99 96 97 90 85 85 98 105 98 100 105 109 108 110 111 112 113 114 114 115 115 116 117 116 116 116 115 114 115 114
62 49 68 74 68 80 87 95 96 84 75 78 82 81 87 88 90 87 80 88 100 107 105 110 110 110 109 110 111 112 112 113 114 115 115 115 115 117 117 117 118 117 117 118
82 66 64 72 86 91 97 108 81 80 81 80 87 85 84 78 75 80 89 98 104 107 104 107 106 106 108 109 109 110 111 111 113 114 116 117 118 120 119 118 116 118 116 116
96 78 75 74 96 100 112 87 88 82 84 85 85 85 90 93 89 89 92 98 104 104 107 110 105 102 104 106 108 111 112 113 115 118 118 118 117 118 120 121 119 119 121 122
101 87 83 86 107 120 113 86 88 87 89 91 90 92 91 91 95 97 97 98 100 101 102 101 102 103 104 106 110 113 113 111 111 116 117 119 123 124 126 128 125 122 124 125
107 104 107 106 106 114 109 101 92 86 85 92 94 96 96 99 97 96 97 97 97 103 103 103 106 107 107 109 110 111 115 118 118 122 126 125 125 126 127 130 129 128 128 132